Flag for Dominican Republic Past Weather in Santiago de los Caballeros, Dominican Republic — Yesterday and Last 2 Weeks

Now
90 °F

Scattered clouds.


Feels Like: 96 °F
Forecast: 76 / 89 °F
Wind: 12 mph from Southeast

Location: Santiago

Current Time: Aug 19, 2017 at 3:09:54 pm

Latest Report: Aug 19, 2017 at 2:00 pm


Visibility: N/A

Pressure: 29.92 "Hg

Humidity: 55%

Dew Point: 72 °F

Location of Santiago de los CaballerosLocation

Past Weather in Santiago de los Caballeros — Graph

°F

Santiago de los Caballeros Temperature Yesterday

Maximum temperature yesterday: 91 °F (at 3:00 pm)
Minimum temperature yesterday: 73 °F (at 12:00 am)
Average temperature yesterday: 81 °F

High & Low Weather Summary for the Past Weeks

 TemperatureHumidityPressure
High93 °F (Aug 9, 4:00 pm)100% (Aug 5, 3:00 am)30.09 "Hg (Aug 5, 3:00 am)
Low72 °F (Aug 6, 6:00 am)46% (Aug 9, 3:00 pm)29.89 "Hg (Aug 18, 3:00 pm)
Average80 °F82%29.99 "Hg
* Reported Aug 4 2:00 pm — Aug 19 2:00 pm, Santiago de los Caballeros. Weather by CustomWeather, © 2017

Note: Actual official high and low records may vary slightly from our data, if they occured in-between our weather recording intervals... More about our weather records

Advertising

Santiago de los Caballeros Weather History for the Previous 24 Hours

Scroll right to see more
 ConditionsComfort  
Time TempWeatherWind HumidityBarometerVisibility
2:00 pm
Sat, Aug 19
90 °FScattered clouds.12 mph55%29.92 "HgN/A
1:00 pm90 °FScattered clouds.8 mph52%29.92 "HgN/A
12:00 pm88 °FScattered clouds.7 mph59%29.95 "HgN/A
11:00 am86 °FScattered clouds.14 mph66%29.95 "HgN/A
10:00 am86 °FPassing clouds.15 mph62%29.95 "HgN/A
9:00 am79 °FPassing clouds.6 mph84%29.95 "HgN/A
8:00 am73 °FPassing clouds.No wind94%29.95 "HgN/A
7:00 am72 °FScattered clouds.No wind100%29.92 "HgN/A
6:00 am73 °FPassing clouds.No wind100%29.92 "HgN/A
5:00 am73 °FPassing clouds.5 mph100%29.92 "HgN/A
4:00 am73 °FPassing clouds.6 mph100%29.92 "HgN/A
3:00 am75 °FPassing clouds.No wind94%29.92 "HgN/A
2:00 am75 °FPassing clouds.No wind94%29.95 "HgN/A
1:00 am75 °FPassing clouds.No wind94%29.95 "HgN/A
12:00 am77 °FPassing clouds.5 mph94%29.98 "HgN/A
11:00 pm
Fri, Aug 18
79 °FPassing clouds.6 mph84%29.98 "HgN/A
10:00 pm79 °FPassing clouds.6 mph84%29.98 "HgN/A
9:00 pm81 °FPassing clouds.6 mph79%29.98 "HgN/A
8:00 pm82 °FPassing clouds.9 mph70%29.95 "HgN/A
7:00 pm84 °FScattered clouds.9 mph70%29.92 "HgN/A
6:00 pm86 °FScattered clouds.15 mph66%29.89 "HgN/A
5:00 pm88 °FBroken clouds.16 mph66%29.89 "HgN/A
4:00 pm88 °FBroken clouds.15 mph66%29.89 "HgN/A
3:00 pm91 °FScattered showers. Scattered clouds.12 mph59%29.89 "Hg4 mi
Weather by CustomWeather, © 2017

See weather overviewHow to use our weather pages